Regional Weather Roundup
Issued by NWS

Home | Current Version | Previous Version | Graphics & Text | Print | Product List | Glossary On
Versions: 1 2 3 4 5 6 7 8 9 10 11 12 13 14 15 16 17 18 19 20 21 22 23 24 25 26 27 28 29 30 31 32 33 34 35 36 37 38 39 40 41 42 43 44 45 46 47 48 49 50
000
ASUS43 KFSD 231610
RWRSD

WEATHER ROUNDUP FOR SOUTH DAKOTA
NATIONAL WEATHER SERVICE SIOUX FALLS SD
1100 AM CDT THU MAR 23 2017

NOTE: "FAIR" INDICATES FEW OR NO CLOUDS BELOW 12,000 FEET WITH NO
SIGNIFICANT WEATHER AND/OR OBSTRUCTIONS TO VISIBILITY.


SDZ001>005-009-010-012>017-231700-
NORTHWEST AND NORTH CENTRAL SOUTH DAKOTA

CITY           SKY/WX    TMP DP  RH WIND       PRES   REMARKS
BUFFALO          N/A     46  41  82 NE15      29.63S
FAITH            N/A     47  40  76 NE14      29.63F
MOBRIDGE       MOSUNNY   48  32  53 SE10      29.70R
$$

SDZ012>016-024>037-041>051-057-063-072>074-231700-
SOUTHWEST AND SOUTH CENTRAL SOUTH DAKOTA

CITY           SKY/WX    TMP DP  RH WIND       PRES   REMARKS
RAPID CTY ARPT SUNNY     54  41  61 N13       29.64S
PIERRE         MOSUNNY   51  35  54 S18       29.68S
CUSTER         SUNNY     55  37  50 E12       29.68F
ELLSWORTH AFB  SUNNY     52  43  70 N15       29.64F
PHILIP         SUNNY     54  39  57 CALM      29.63F
PINE RIDGE     SUNNY     53  40  61 S8        29.65S
SPEARFISH      FAIR      50  41  71 NW7       29.68S
WINNER         CLOUDY    52  41  66 S21G28    29.69F
$$

SDZ004>011-016>023-039-040-231700-
NORTHEAST SOUTH DAKOTA

CITY           SKY/WX    TMP DP  RH WIND       PRES   REMARKS
ABERDEEN       CLOUDY    41  28  60 S16       29.76F
WATERTOWN      CLOUDY    39  26  59 S13G21    29.81F
BROOKINGS      CLOUDY    40  25  55 S18G24    29.83F
SISSETON         N/A     40  29  64 S17       29.83F
$$

SDZ017-020-022-023-036>040-048>070-231700-
SOUTHEAST SOUTH DAKOTA

CITY           SKY/WX    TMP DP  RH WIND       PRES   REMARKS
SIOUX FALLS    CLOUDY    45  29  53 SE16      29.86F
HURON          CLOUDY    43  29  57 S17G28    29.77F
CHAMBERLAIN    CLOUDY    49  37  61 SE13      29.73R
MITCHELL       LGT RAIN  43  30  60 SE21G30   29.79F
YANKTON        CLOUDY    43  36  75 SE17      29.83F
$$

ABBREVIATIONS USED IN REMARKS
   TC - TEMPERATURE IN CELSIUS
  WCI - WIND CHILL INDEX
   HX - HEAT INDEX
  VSB - VISIBILITY




USA.gov is the U.S. government's official web portal to all federal, state and local government web resources and services.